sat.trackr.live / text

‹ back to catalog

STARLINK-31951

NORAD 59890 · 2024-100F

PAYLOAD ACTIVE UNKNOWN

§ Identity

Operator
Country
US
Launch date
2024-05-28
Launch site
AFETR
Launch vehicle
Mass (kg)
RCS (m²)

Purposes: comms

External: N2YO · Heavens-Above · Gunter

§ Orbital elements

Epoch: 2026-09-21T21:03:49.083552Z

Period
94.27 min
Inclination
43.0073°
Eccentricity
0.0001931
Mean motion
15.27576707 rev/d
Perigee alt
481.7 km
Apogee alt
484.4 km
Semi-major
6,861.2 km
B*
8.9708e-6
RAAN
97.2231°
Arg perigee
268.7024°
Mean anomaly
91.3607°
Rev number
13,106

§ Raw data

STARLINK-319511 59890U 24100F   26264.87765143 -.00000016  00000+0  89708-5 0  99932 59890  43.0073  97.2231 0001931 268.7024  91.3607 15.27576707131061

JSON: /api/v1/satellites/59890 · /tle

For live sub-satellite position, see the globe view (requires WebGL).

§ Visibility from observer

Set your observer location to see the next 7 days of passes ≥ 10°. The values pass through the URL so the page stays shareable.

No JS? Fill the form by hand. The geolocation button needs JavaScript.